Location: Aldenham
(51.6667°N, 0.3500°W)
Time: 14:52:35
(UTC+00:00)

Transit 2A - Visible Passes

Search period start: 10 February 2026 00:00
Search period end: 20 February 2026 00:00
Orbit: 589 x 955 km, 66.7° (Epoch: 10 February)

Date Brightness Start Highest point End Pass type
(mag) Time Alt. Az. Time Alt. Az. Time Alt. Az.
10 Feb 8.2 18:07:59 10° WNW 18:12:45 22° NNW 18:17:27 10° NE visible
10 Feb 7.9 19:53:11 10° NW 19:58:03 23° NNE 19:58:43 22° NNE visible
10 Feb 8.4 21:36:42 10° NW 21:39:04 23° NNW 21:39:04 23° NNW visible
11 Feb 8.0 19:16:33 10° NW 19:21:14 21° N 19:23:26 18° NE visible
11 Feb 7.9 21:00:19 10° NNW 21:03:46 28° N 21:03:46 28° N visible
11 Feb 9.1 22:43:34 10° NW 22:44:06 13° NW 22:44:06 13° NW visible
12 Feb 8.1 18:39:49 10° NW 18:44:24 20° N 18:48:09 12° NE visible
12 Feb 7.6 20:23:55 10° NNW 20:28:29 30° NNE 20:28:29 30° NNE visible
12 Feb 8.6 22:07:08 10° NW 22:08:49 19° NW 22:08:49 19° NW visible
13 Feb 8.1 18:03:00 10° NW 18:07:33 20° N 18:12:01 10° NE visible
13 Feb 7.6 19:47:29 10° NNW 19:52:45 27° NNE 19:53:13 27° NNE visible
13 Feb 8.1 21:30:45 10° NW 21:33:34 28° NNW 21:33:34 28° NNW visible
14 Feb 7.7 19:10:59 10° NW 19:15:59 24° NNE 19:17:57 20° NE visible
14 Feb 7.5 20:54:22 10° NW 20:58:18 36° NNW 20:58:18 36° NNW visible
14 Feb 9.0 22:37:51 10° NW 22:38:39 14° NW 22:38:39 14° NW visible
15 Feb 7.9 18:34:25 10° NW 18:39:11 22° NNE 18:42:44 14° NE visible
15 Feb 7.1 20:18:00 10° NNW 20:23:04 41° NNE 20:23:04 41° NNE visible
15 Feb 8.4 22:01:19 10° NW 22:03:25 22° NW 22:03:25 22° NW visible
16 Feb 8.0 17:57:45 10° NW 18:02:22 21° N 18:06:50 10° NE visible
16 Feb 7.1 19:41:37 10° NNW 19:47:18 35° NNE 19:47:52 34° NE visible
16 Feb 7.8 21:24:51 10° NW 21:28:13 34° NW 21:28:13 34° NW visible
17 Feb 7.4 19:05:12 10° NNW 19:10:38 30° NNE 19:12:42 24° ENE visible
17 Feb 6.9 20:48:26 10° NW 20:53:03 51° NNW 20:53:03 51° NNW visible
17 Feb 8.9 22:32:28 10° WNW 22:33:23 13° WNW 22:33:23 13° WNW visible
18 Feb 7.6 18:28:45 10° NNW 18:33:53 26° NNE 18:37:34 15° ENE visible
18 Feb 6.4 20:12:03 10° NW 20:17:55 63° NNE 20:17:55 63° NNE visible
18 Feb 8.3 21:55:42 10° NW 21:58:16 22° WNW 21:58:16 22° WNW visible
19 Feb 7.8 17:52:14 10° NW 17:57:07 23° NNE 18:01:48 10° ENE visible
19 Feb 6.5 19:35:41 10° NW 19:41:41 50° NE 19:42:49 44° ENE visible
19 Feb 7.6 21:19:06 10° NW 21:23:10 36° WNW 21:23:10 36° WNW visible
